Vorticity
nan nan nan nan nan nan nan nan nan nan nan nan nan nan nan nan nan nan nan nan nan nan nan nan nan nan nan nan nan nan nan nan nan nan nan nan nan nan nan nan nan nan nan nan
nan 8 4 4 4 5 4 10 9 6 7 5 8 10 7 9 11 9 8 9 6 6 8 6 6 7 7 7 7 6 7 5 5 5 6 6 9 13 7 7 9 9 8 nan
nan 4 7 5 7 12 3 5 -0 5 6 4 7 14 15 11 14 10 6 5 8 8 6 7 7 6 6 6 6 7 7 6 5 5 7 4 8 14 6 9 9 11 9 nan
nan 8 7 6 7 7 5 3 2 7 -1 9 8 9 21 14 10 8 8 10 8 9 7 8 7 6 6 6 7 6 7 5 7 4 5 9 7 7 9 5 10 10 8 nan
nan 10 5 7 6 3 5 10 12 -5 5 14 1 3 16 12 10 11 12 8 7 9 8 7 7 8 7 6 7 6 8 5 6 5 3 9 7 5 8 8 7 5 9 nan
nan 7 13 7 10 7 3 7 9 11 11 11 8 10 11 14 12 12 12 6 11 9 9 6 8 7 7 7 6 7 9 6 7 7 7 5 6 6 9 9 5 8 7 nan
nan 12 8 12 8 10 9 5 5 10 9 11 12 9 2 7 15 20 15 13 10 9 9 9 7 5 9 8 6 5 7 9 9 6 7 6 5 8 7 10 5 8 8 nan
nan 15 12 6 9 9 9 2 5 2 3 9 10 6 12 5 13 21 13 16 10 10 10 10 7 7 8 7 8 6 6 7 8 7 7 7 8 6 7 6 7 7 9 nan
nan 10 10 8 10 8 8 8 1 6 2 8 17 9 1 10 9 8 16 17 11 9 8 11 9 8 8 8 8 7 5 7 8 6 7 8 7 8 9 6 8 3 10 nan
nan 19 20 12 7 9 11 10 9 8 8 8 8 7 13 10 6 11 13 10 13 11 10 9 11 10 7 9 8 8 6 7 8 7 6 8 8 7 6 11 9 8 7 nan
nan 10 22 25 10 7 9 7 5 10 9 9 9 7 9 12 20 9 8 15 13 12 10 9 12 10 10 8 9 9 8 7 7 9 8 9 9 8 8 7 7 9 7 nan
nan 12 18 12 15 12 8 9 0 9 9 2 8 10 23 14 5 7 7 7 23 21 11 11 11 11 11 10 10 8 9 7 8 8 9 10 8 9 7 7 8 9 7 nan
nan 21 9 18 13 8 9 7 9 3 11 10 7 3 8 9 11 8 12 14 19 18 20 13 10 11 11 10 9 9 11 10 8 7 9 10 9 8 9 7 8 8 8 nan
nan 13 11 11 6 8 10 10 10 6 4 9 10 9 -1 4 6 4 4 12 18 23 21 12 12 11 11 11 10 12 10 9 9 11 8 7 10 11 8 9 9 8 10 nan
nan 16 11 5 7 12 16 9 10 9 6 6 5 6 5 7 7 11 8 13 17 16 5 19 24 11 11 9 9 10 9 12 10 10 9 9 9 10 10 10 10 10 9 nan
nan 16 16 19 17 8 7 21 21 8 6 8 6 10 9 12 7 6 10 7 4 10 9 10 20 25 13 11 10 9 10 10 11 10 9 9 11 9 8 9 11 10 9 nan
nan 11 17 17 12 14 18 11 10 17 14 10 10 16 15 10 3 7 10 9 7 7 8 9 9 10 9 20 22 11 12 9 9 9 10 10 9 9 10 9 8 10 10 nan
nan 7 10 12 20 17 19 20 9 12 22 23 13 10 20 10 7 7 10 11 8 8 9 9 10 9 8 12 15 25 19 12 12 12 10 9 11 10 11 9 9 9 10 nan
nan 5 9 13 10 19 10 21 21 20 7 8 21 14 10 5 -6 2 11 10 9 8 10 10 9 9 13 12 11 12 23 27 17 13 15 14 15 15 11 12 14 13 11 nan
nan 6 9 11 16 8 3 11 11 21 16 8 9 10 8 5 6 10 9 8 9 8 8 9 12 6 11 10 16 12 12 11 9 17 19 11 14 12 10 12 7 15 13 nan
nan 15 13 5 7 -1 4 2 24 16 4 15 15 8 11 9 21 18 8 8 9 10 11 11 9 11 9 6 10 12 9 9 10 10 8 9 12 11 8 8 7 13 14 nan
nan 13 12 15 17 -4 3 18 10 8 7 15 14 16 18 18 14 9 8 8 8 9 11 11 10 11 9 16 9 7 9 10 9 12 12 10 10 14 11 11 12 4 12 nan
nan 11 12 17 23 17 11 12 13 14 17 11 11 16 13 12 10 10 10 8 9 10 12 11 10 11 10 11 14 11 7 9 12 13 11 10 9 9 13 12 11 12 12 nan
nan 12 20 10 8 9 10 8 7 15 24 14 12 13 10 8 9 11 12 10 9 9 11 11 8 8 10 11 13 10 12 13 13 9 14 10 9 13 11 10 11 11 14 nan
nan 7 17 16 11 8 4 8 8 16 18 10 14 12 10 7 10 8 9 9 10 10 9 6 7 10 8 6 8 8 10 14 14 13 13 11 8 12 11 9 13 13 11 nan
nan nan nan nan nan nan nan nan nan nan nan nan nan nan nan nan nan nan nan nan nan nan nan nan nan nan nan nan nan nan nan nan nan nan nan nan nan nan nan nan nan nan nan nan
CAPE
0 0 0 4 29 58 48 61 81 55 32 211 199 285 490 482 198 355 155 2 0 6 3 0 0 0 0 202 679 946 1013 2146 1665 1184 1050 1070 1631 1681 2414 2566 2087 2196 1970 1981
0 0 0 0 17 42 38 61 84 33 27 59 188 112 110 690 476 209 329 33 1 0 2 1 49 68 42 315 786 1025 1172 1718 1619 1093 1367 2249 2408 1542 1708 1846 2120 2067 2027 2226
0 0 0 3 9 40 86 83 85 83 60 42 31 34 39 171 572 572 553 445 173 1 0 0 37 116 142 473 798 1078 1361 1778 2172 2002 1379 2325 3184 1679 1322 1754 1446 1568 1882 1934
0 0 0 0 3 25 68 88 78 10 56 54 78 60 138 106 370 627 791 597 373 114 1 1 0 72 168 417 692 1079 1605 2395 1897 2552 2359 3247 2097 1159 596 938 1029 1463 1817 1842
0 0 0 0 0 10 29 49 98 96 63 71 78 25 72 226 190 523 561 919 540 615 3 0 19 2 75 261 534 923 1698 2495 2943 2826 2717 2332 2148 1017 976 829 3167 2964 2792 1811
0 0 0 0 0 0 8 18 42 79 64 85 86 91 111 302 281 316 593 592 853 599 344 19 3 35 42 90 265 693 2515 3117 2912 2656 2544 3833 3454 2468 831 1570 1624 1447 1950 2058
0 0 0 0 3 4 6 40 64 88 70 53 78 77 84 55 27 175 482 773 776 757 605 166 18 38 99 87 184 349 1968 2695 2372 2143 2271 2738 3411 3600 3351 2644 1580 2093 1054 1190
0 0 0 0 0 3 1 30 60 92 75 59 67 49 79 33 35 28 269 652 670 627 838 590 77 64 126 228 173 225 1714 2759 2691 1974 2908 3333 3687 2159 2223 2998 1646 1165 883 1008
0 0 0 0 0 0 0 3 1 79 85 80 72 62 73 39 0 41 97 408 731 546 586 828 452 85 219 191 350 308 1347 2147 2408 1831 2883 3487 3604 3601 2012 3251 3953 2297 2768 1398
0 0 0 0 0 0 0 0 33 54 85 84 87 43 92 67 24 10 121 206 556 707 507 676 893 462 144 99 206 359 573 1511 1574 1386 2566 2872 3184 3657 3535 3984 3705 3374 3218 2149
0 0 0 2 1 0 0 15 40 27 32 59 85 90 62 68 89 40 35 28 140 632 629 513 674 901 605 244 196 337 524 1064 1805 2199 2321 2795 2327 3011 3345 2647 3186 3428 3319 3878
0 0 0 6 0 0 1 5 12 26 6 19 54 91 56 131 93 26 73 488 266 158 609 498 511 660 1036 775 416 448 905 1083 2257 2792 2889 2304 1977 2647 2402 3492 3334 2988 3475 4010
127 9 0 0 18 3 0 0 0 9 24 51 50 34 101 115 112 154 688 1067 835 527 383 479 455 610 868 1060 1214 1085 1393 1258 1461 2847 2603 1921 1553 1612 1986 2535 3019 3377 3806 3726
54 0 5 0 1 0 0 0 0 0 8 12 38 56 150 164 275 288 1044 1656 1126 774 567 470 539 1261 1626 1860 2412 2358 1905 1297 1750 2111 2076 2386 2250 1681 1328 2714 3535 3610 4080 3943
63 55 4 0 0 1 0 0 0 0 0 1 14 54 84 88 698 915 1183 1575 1710 1247 1168 1782 1254 1387 1420 1958 2666 2232 2267 2236 2019 2831 2108 2447 2987 2921 2485 2367 3009 3534 3789 3755
83 138 96 41 0 0 0 0 0 0 0 0 2 35 40 438 1087 1060 1185 1596 2150 1380 1501 1722 2054 1753 1608 1648 1809 1950 2137 2823 2879 3341 2993 3331 3530 3407 3322 3183 3315 3905 4019 4140
2 60 263 145 54 41 3 0 0 0 0 0 0 0 150 1628 727 526 664 538 303 165 330 344 635 974 1514 2015 1810 1969 2107 2122 2296 2417 3046 3454 3605 3382 3571 3589 3534 3832 4172 4303
8 133 312 266 157 93 4 0 0 0 0 0 0 684 1085 431 146 81 91 107 13 6 5 27 5 41 216 842 1735 2198 2010 2186 2223 2284 2337 2825 2841 3124 3483 3706 3757 3835 3424 3677
0 16 79 208 160 156 84 190 58 18 24 509 786 806 771 533 276 14 4 7 5 5 7 4 3 9 11 131 919 1206 1554 2532 2407 2758 2834 2808 2677 2547 2552 2504 3112 3418 3538 3140
0 0 58 293 217 66 662 906 784 571 370 641 582 874 618 603 305 191 7 8 9 5 3 4 6 7 7 7 130 933 803 1049 317 1052 2330 2349 1053 2309 2115 1918 1844 2216 2784 2572
14 2 37 81 225 291 252 211 527 584 738 803 868 915 653 792 876 120 5 8 9 8 2 3 13 21 33 8 36 109 396 237 255 768 724 766 999 904 662 877 1062 1100 1701 2023
136 3 7 126 133 235 18 422 695 173 857 899 989 880 1146 484 268 87 13 5 2 11 14 15 17 27 58 60 187 136 106 122 215 253 358 208 273 431 656 832 712 570 695 2001
395 617 819 532 495 122 2 6 2 6 563 909 734 680 504 288 168 128 59 4 8 11 11 14 8 4 9 11 122 61 77 223 416 370 493 481 322 312 469 534 630 511 1180 1011
424 592 747 768 163 5 6 3 1 11 654 914 561 329 306 190 137 132 169 101 84 30 24 17 10 23 29 18 14 30 51 209 272 302 354 607 310 396 403 402 797 818 286 364
440 497 530 444 51 7 2 4 1 0 237 366 311 132 81 50 33 30 46 78 54 37 15 4 20 23 14 11 12 14 37 119 194 203 163 191 187 198 274 317 253 184 13 28
567 524 473 597 419 27 3 1 1 0 160 266 263 284 171 188 171 101 51 32 39 5 5 6 20 12 5 6 3 2 1 0 6 16 11 0 88 65 67 106 189 0 0 0